EW8410 Jamestown RI US current weather conditions

sailwx.info

Wind from 070 at 1 knots gusting 4

Air temperature 1.7° C
Dewpoint 0.7° C

Last reported at 2020-Jan-25 10:00 UTC.
Time now 2020-Jan-25 10:32 UTC

Location: N 41°33' W 071°22'.
View on Google Maps.

See reports from other nearby stations

  
Tides and Currents Weather Stations Pressure Air Temp Water Temp Dewpoint Dewpoint Depression Visibility Wind Speed Wind Dir Waves Ship Positions
date/time (UTC)wind fromknots sea level pressurealtimeterstation pressurevisibilityair tempwater tempwave heightnotes
2020-Jan-25 10:00 070 1 gusting 4 1.7
2020-Jan-25 09:48 065 2 gusting 5 2.2
2020-Jan-25 09:39 066 2 gusting 5 1.7
2020-Jan-25 09:30 064 1 gusting 4 1.7
2020-Jan-25 09:21 058 0 gusting 3 1.7
2020-Jan-25 09:12 060 1 gusting 2 1.7
2020-Jan-25 09:03 061 1 gusting 3 1.1
2020-Jan-25 09:00 066 1 gusting 3 1.1
2020-Jan-25 08:54 042 0 gusting 1 1.1
2020-Jan-25 08:45 056 0 gusting 2 1.1
2020-Jan-25 08:36 061 0 gusting 2 1.1
2020-Jan-25 08:30 053 1.1
2020-Jan-25 08:27 060 0 gusting 1 1.1
2020-Jan-25 08:18 059 1 gusting 3 1.1
2020-Jan-25 08:09 060 1 gusting 2 1.1
2020-Jan-25 08:00 063 0 gusting 1 1.1
2020-Jan-25 07:51 064 0 gusting 2 1.1
2020-Jan-25 07:42 061 0 gusting 1 1.1
2020-Jan-25 07:33 059 0 gusting 1 1.7
2020-Jan-25 07:24 055 0 gusting 1 1.7
2020-Jan-25 07:15 066 0 gusting 1 1.7
2020-Jan-25 07:06 066 0 gusting 1 1.7
2020-Jan-25 07:00 063 1.1
2020-Jan-25 06:48 059 0 gusting 2 1.7
2020-Jan-25 06:39 064 1 gusting 3 1.7
2020-Jan-25 06:30 069 1 gusting 3 1.7
2020-Jan-25 06:21 066 1 gusting 2 2.2
2020-Jan-25 06:12 070 1 gusting 2 2.2
2020-Jan-25 06:03 073 1 gusting 3 2.2
2020-Jan-25 06:00 068 0 gusting 3 1.7
2020-Jan-25 05:54 075 1 gusting 3 1.7
2020-Jan-25 05:45 073 1 gusting 2 1.7
2020-Jan-25 05:36 068 1 gusting 3 1.7
2020-Jan-25 05:30 071 1 gusting 3 1.7
2020-Jan-25 05:18 072 1 gusting 3 2.2
2020-Jan-25 05:09 073 1 gusting 4 2.2
2020-Jan-25 05:00 078 1 gusting 2 2.2
2020-Jan-25 04:51 072 1 gusting 2 2.2
2020-Jan-25 04:42 074 1 gusting 4 2.2
2020-Jan-25 04:33 072 1 gusting 3 2.2
2020-Jan-25 04:30 069 1 gusting 3 2.2
2020-Jan-25 04:24 073 0 gusting 3 2.2
2020-Jan-25 04:15 070 1 gusting 1 2.2
2020-Jan-25 04:06 071 0 gusting 4 2.2
2020-Jan-25 03:57 072 0 gusting 1 2.8
2020-Jan-25 03:48 073 0 gusting 3 2.2
2020-Jan-25 03:45 071 0 gusting 3 2.2
2020-Jan-25 03:39 077 0 gusting 1 2.8
2020-Jan-25 03:30 075 0 gusting 2 2.2
2020-Jan-25 03:21 068 0 gusting 1 2.2
2020-Jan-25 03:12 073 0 gusting 1 2.2
2020-Jan-25 03:03 075 0 gusting 2 2.2
2020-Jan-25 03:00 080 0 gusting 3 2.2
2020-Jan-25 02:54 075 0 gusting 2 2.2
2020-Jan-25 02:45 074 0 gusting 3 2.2
2020-Jan-25 02:36 071 0 gusting 4 2.2
2020-Jan-25 02:30 074 0 gusting 4 2.2
2020-Jan-25 02:18 065 1 gusting 2 2.8
2020-Jan-25 02:09 066 1 gusting 2 2.8
2020-Jan-25 02:00 067 0 gusting 2 2.8
2020-Jan-25 01:51 074 1 gusting 2 2.8
2020-Jan-25 01:42 075 1 gusting 2 2.8
2020-Jan-25 01:33 077 0 gusting 4 2.8
2020-Jan-25 01:30 077 0 gusting 2 2.8
2020-Jan-25 01:24 082 1 gusting 2 3.3
2020-Jan-25 01:15 083 1 gusting 2 3.3
2020-Jan-25 01:06 075 1 gusting 3 3.3
2020-Jan-25 00:57 078 1 gusting 4 3.3
2020-Jan-25 00:48 074 1 gusting 3 3.9
2020-Jan-25 00:45 078 0 gusting 3 3.3
2020-Jan-25 00:39 072 1 gusting 3 3.9
2020-Jan-25 00:30 075 1 gusting 4 3.9
2020-Jan-25 00:21 076 2 gusting 6 3.9
2020-Jan-25 00:15 077 2 gusting 6 3.9
2020-Jan-25 00:03 079 2 gusting 6 3.9
2020-Jan-24 23:54 075 1 gusting 4 3.9
2020-Jan-24 23:45 069 1 gusting 6 4.4
2020-Jan-24 23:36 075 0 gusting 2 3.9
2020-Jan-24 23:30 082 0 gusting 3 3.9
2020-Jan-24 23:18 077 0 gusting 1 4.4
2020-Jan-24 23:09 097 0 gusting 1 4.4
2020-Jan-24 23:00 103 3.9
2020-Jan-24 22:51 137 4.4
2020-Jan-24 22:42 4.4
2020-Jan-24 22:33 4.4
2020-Jan-24 22:30 154 4.4
2020-Jan-24 22:24 4.4
2020-Jan-24 22:15 184 5.0
2020-Jan-24 22:06 145 5.6
2020-Jan-24 22:00 132 5.6
2020-Jan-24 21:48 132 6.1
2020-Jan-24 21:39 126 7.2
2020-Jan-24 21:30 135 7.2
2020-Jan-24 21:21 141 0 gusting 1 7.8
2020-Jan-24 21:12 137 8.3
2020-Jan-24 21:03 070 0 gusting 2 8.9
2020-Jan-24 21:00 069 0 gusting 2 8.9
2020-Jan-24 20:54 066 1 gusting 3 9.4
2020-Jan-24 20:45 064 0 gusting 2 9.4
2020-Jan-24 20:36 064 1 gusting 5 9.4
2020-Jan-24 20:30 076 1 gusting 6 9.4
2020-Jan-24 20:18 063 1 gusting 4 10.0
2020-Jan-24 20:09 067 2 gusting 5 10.0
2020-Jan-24 20:00 066 2 gusting 4 9.4
2020-Jan-24 19:51 064 1 gusting 4 9.4
2020-Jan-24 19:42 071 2 gusting 5 9.4
2020-Jan-24 19:33 075 1 gusting 4 9.4
2020-Jan-24 19:30 057 1 gusting 4 8.9
2020-Jan-24 19:24 074 2 gusting 6 8.9
2020-Jan-24 19:15 070 2 gusting 6 8.9
2020-Jan-24 19:06 068 1 gusting 5 8.9
2020-Jan-24 19:00 078 0 gusting 3 8.9
2020-Jan-24 18:48 040 1 gusting 4 8.9
2020-Jan-24 18:39 060 2 gusting 5 8.3
2020-Jan-24 18:30 059 2 gusting 5 8.3
2020-Jan-24 18:21 033 1 gusting 5 7.8
2020-Jan-24 18:15 036 1 gusting 5 7.8
2020-Jan-24 18:03 057 1 gusting 3 7.2
2020-Jan-24 18:00 327 0 gusting 3 6.1
2020-Jan-24 17:54 057 1 gusting 4 6.1
2020-Jan-24 17:45 044 1 gusting 6 6.7
2020-Jan-24 17:36 034 1 gusting 3 6.7
2020-Jan-24 17:30 036 0 gusting 3 6.1
2020-Jan-24 17:18 054 0 gusting 3 6.7
2020-Jan-24 17:09 339 0 gusting 1 6.7
2020-Jan-24 17:00 014 0 gusting 3 6.7
2020-Jan-24 16:51 062 0 gusting 1 7.2
2020-Jan-24 16:42 068 0 gusting 2 6.7
2020-Jan-24 16:33 055 0 gusting 3 6.1
2020-Jan-24 16:30 057 6.1
2020-Jan-24 16:24 024 0 gusting 3 6.1
2020-Jan-24 16:15 063 0 gusting 2 6.1
2020-Jan-24 16:06 055 0 gusting 3 5.6
2020-Jan-24 16:00 052 0 gusting 3 5.0
2020-Jan-24 15:48 076 1 gusting 3 5.0
2020-Jan-24 15:45 071 0 gusting 3 4.4
2020-Jan-24 15:39 052 0 gusting 3 5.0
2020-Jan-24 15:30 061 1 gusting 4 4.4
2020-Jan-24 15:21 058 1 gusting 4 3.9
2020-Jan-24 15:15 087 0 gusting 5 3.9
2020-Jan-24 15:03 049 1 gusting 5 3.9
2020-Jan-24 15:00 093 1 gusting 5 3.3
2020-Jan-24 14:54 057 1 gusting 4 3.9
2020-Jan-24 14:45 049 1 gusting 4 3.3
2020-Jan-24 14:36 052 2 gusting 6 2.8
2020-Jan-24 14:30 334 1 gusting 5 2.8
2020-Jan-24 14:27 042 1 gusting 6 2.8
2020-Jan-24 14:18 038 1 gusting 4 2.8
2020-Jan-24 14:09 043 0 gusting 3 2.8
2020-Jan-24 14:00 052 1 gusting 4 2.8
2020-Jan-24 13:51 057 1 gusting 3 2.2
2020-Jan-24 13:45 059 0 gusting 3 2.2
2020-Jan-24 13:33 052 0 gusting 2 2.2
2020-Jan-24 13:24 014 0 gusting 2 1.7
2020-Jan-24 13:15 018 1.1
2020-Jan-24 13:06 349 0.6
2020-Jan-24 12:57 003 0.6
2020-Jan-24 12:48 021 -0.0
2020-Jan-24 12:45 029 -0.6
2020-Jan-24 12:39 285 -0.6
2020-Jan-24 12:30 274 -0.6
2020-Jan-24 12:21 274 -0.6
2020-Jan-24 12:15 275 -0.6
2020-Jan-24 12:03 273 -0.0
2020-Jan-24 11:54 278 -0.0
2020-Jan-24 11:45 282 -0.0
2020-Jan-24 11:36 0.6
2020-Jan-24 11:27 0.6
2020-Jan-24 11:18 0.6
2020-Jan-24 11:15 310 -0.0
2020-Jan-24 11:09 0.6
2020-Jan-24 11:00 0.6
2020-Jan-24 10:51 336 0.6
2020-Jan-24 10:45 309 0.6
2020-Jan-24 10:33 0.6
2020-Jan-24 10:24 278 0.6
2020-Jan-24 10:15 278 0.6
2020-Jan-24 10:06 278 1.1
2020-Jan-24 09:57 278 1.1
2020-Jan-24 09:48 1.7
2020-Jan-24 09:45 278 1.1
2020-Jan-24 09:39 278 1.7
2020-Jan-24 09:30 274 0 gusting 1 1.7
2020-Jan-24 09:21 1.1
2020-Jan-24 09:12 273 1.1
2020-Jan-24 09:03 1.1
2020-Jan-24 08:54 1.1
2020-Jan-24 08:45 1.7
2020-Jan-24 08:36 274 1.7
2020-Jan-24 08:30 274 1.1
2020-Jan-24 08:18 275 0 gusting 1 1.7
2020-Jan-24 08:09 284 1.7
2020-Jan-24 08:00 284 1.1
2020-Jan-24 07:51 1.7
2020-Jan-24 07:42 1.7
2020-Jan-24 07:33 1.7
2020-Jan-24 07:30 284 1.1
2020-Jan-24 07:24 1.7
2020-Jan-24 07:15 1.7
2020-Jan-24 07:06 277 0 gusting 1 2.2
2020-Jan-24 07:00 280 0 gusting 1 2.2
2020-Jan-24 06:48 229 1.7
2020-Jan-24 06:39 1.7
2020-Jan-24 06:30 1.7
2020-Jan-24 06:21 1.7
2020-Jan-24 06:12 257 1.7
2020-Jan-24 06:03 275 2.2
2020-Jan-24 05:54 268 0 gusting 2 2.2
2020-Jan-24 05:45 270 0 gusting 1 2.2
2020-Jan-24 05:36 262 2.2
2020-Jan-24 05:27 256 1.7
2020-Jan-24 05:18 1.7
2020-Jan-24 05:15 255 1.7
2020-Jan-24 05:09 249 2.2
2020-Jan-24 05:00 273 0 gusting 2 2.2
2020-Jan-24 04:51 277 2 gusting 3 2.2
2020-Jan-24 04:42 274 1 gusting 5 2.2
2020-Jan-24 04:33 271 1 gusting 5 2.2
2020-Jan-24 04:30 284 1 gusting 3 2.2
2020-Jan-24 04:24 273 0 gusting 2 2.2
2020-Jan-24 04:15 264 2.2
2020-Jan-24 04:06 273 0 gusting 1 2.2
2020-Jan-24 04:00 279 0 gusting 1 2.2
2020-Jan-24 03:48 258 2.2
2020-Jan-24 03:39 276 0 gusting 2 2.2
2020-Jan-24 03:30 263 0 gusting 2 2.2
2020-Jan-24 03:21 271 2.2
2020-Jan-24 03:12 273 0 gusting 1 2.8
2020-Jan-24 03:03 274 1 gusting 5 2.8
2020-Jan-24 03:00 248 0 gusting 5 2.2
2020-Jan-24 02:54 268 1 gusting 5 2.8
2020-Jan-24 02:45 275 0 gusting 2 2.2
2020-Jan-24 02:36 275 1 gusting 3 2.8
2020-Jan-24 02:27 274 1 gusting 3 2.8
2020-Jan-24 02:18 269 1 gusting 2 2.8
2020-Jan-24 02:09 270 1 gusting 3 2.8
2020-Jan-24 02:00 272 1 gusting 4 2.8
2020-Jan-24 01:51 276 1 gusting 6 2.8
2020-Jan-24 01:42 264 0 gusting 6 2.8
2020-Jan-24 01:33 257 2.8
2020-Jan-24 01:30 269 2.2
2020-Jan-24 01:24 266 0 gusting 2 2.8
2020-Jan-24 01:15 269 1 gusting 5 2.8
2020-Jan-24 01:06 269 0 gusting 3 2.8
2020-Jan-24 01:00 260 2.2
2020-Jan-24 00:57 267 0 gusting 2 2.8
2020-Jan-24 00:48 274 0 gusting 1 2.8
2020-Jan-24 00:39 268 0 gusting 2 2.8
2020-Jan-24 00:30 278 0 gusting 3 2.8
2020-Jan-24 00:21 270 1 gusting 4 3.3
2020-Jan-24 00:12 271 2 gusting 6 3.3
2020-Jan-24 00:03 271 2 gusting 6 3.3
2020-Jan-24 00:00 252 2 gusting 6 2.8
2020-Jan-23 23:54 270 3 gusting 6 3.3
2020-Jan-23 23:45 277 3 gusting 6 2.8
2020-Jan-23 23:36 272 2 gusting 6 2.8
2020-Jan-23 23:30 293 1 gusting 5 2.8
2020-Jan-23 23:18 266 1 gusting 3 3.3
2020-Jan-23 23:09 269 1 gusting 3 3.3
2020-Jan-23 23:00 278 0 gusting 4 3.3
2020-Jan-23 22:51 277 2 gusting 6 3.3
2020-Jan-23 22:42 275 1 gusting 3 3.3
2020-Jan-23 22:33 270 1 gusting 3 3.3
2020-Jan-23 22:24 269 1 gusting 3 3.3
2020-Jan-23 22:15 264 1 gusting 3 3.3
2020-Jan-23 22:06 266 0 gusting 3 3.3
2020-Jan-23 21:57 270 0 gusting 2 3.9
2020-Jan-23 21:48 261 0 gusting 2 3.9
2020-Jan-23 21:45 257 3.9
2020-Jan-23 21:39 259 0 gusting 2 3.9
2020-Jan-23 21:30 260 0 gusting 2 4.4
2020-Jan-23 21:21 260 0 gusting 2 4.4
2020-Jan-23 21:15 254 4.4
2020-Jan-23 21:03 266 1 gusting 3 4.4
2020-Jan-23 20:54 261 0 gusting 3 4.4
2020-Jan-23 20:45 267 0 gusting 6 5.0
2020-Jan-23 20:36 253 0 gusting 6 5.6
2020-Jan-23 20:27 199 5.6
2020-Jan-23 20:18 246 6.1
2020-Jan-23 20:15 261 5.6
2020-Jan-23 20:09 252 0 gusting 2 6.1
2020-Jan-23 20:00 259 0 gusting 1 6.1
2020-Jan-23 19:51 248 0 gusting 3 6.7
2020-Jan-23 19:45 223 6.7
2020-Jan-23 19:33 264 0 gusting 3 7.2
2020-Jan-23 19:24 248 0 gusting 2 7.8
2020-Jan-23 19:15 274 0 gusting 2 8.3
2020-Jan-23 19:06 170 0 gusting 2 7.8
2020-Jan-23 18:57 270 1 gusting 3 7.8
2020-Jan-23 18:48 274 2 gusting 6 7.8
2020-Jan-23 18:45 263 2 gusting 6 7.8
2020-Jan-23 18:39 273 2 gusting 6 7.8
2020-Jan-23 18:30 272 2 gusting 6 7.8
2020-Jan-23 18:21 272 2 gusting 6 7.8
2020-Jan-23 18:15 288 0 gusting 6 7.2
2020-Jan-23 18:03 279 3 gusting 9 7.2
2020-Jan-23 17:54 269 2 gusting 5 6.7
2020-Jan-23 17:45 278 1 gusting 6 6.7
2020-Jan-23 17:36 276 2 gusting 6 6.1
2020-Jan-23 17:27 274 3 gusting 6 6.1
2020-Jan-23 17:18 276 3 gusting 6 5.6
2020-Jan-23 17:15 265 3 gusting 7 5.6
2020-Jan-23 17:09 273 2 gusting 6 5.6
2020-Jan-23 17:00 266 2 gusting 6 5.6
2020-Jan-23 16:51 271 3 gusting 7 5.0
2020-Jan-23 16:45 277 2 gusting 7 5.0
2020-Jan-23 16:33 269 3 gusting 6 5.0
2020-Jan-23 16:24 271 3 gusting 6 4.4
2020-Jan-23 16:15 269 2 gusting 6 4.4
2020-Jan-23 16:06 278 2 gusting 6 4.4
2020-Jan-23 15:57 276 3 gusting 7 4.4
2020-Jan-23 15:48 268 3 gusting 8 4.4
2020-Jan-23 15:45 281 2 gusting 8 3.9
2020-Jan-23 15:39 274 3 gusting 8 3.9
2020-Jan-23 15:30 269 3 gusting 9 3.9
2020-Jan-23 15:21 270 3 gusting 9 3.3
2020-Jan-23 15:15 269 1 gusting 7 2.8
2020-Jan-23 15:03 272 3 gusting 8 2.8
2020-Jan-23 14:54 270 3 gusting 8 2.8
2020-Jan-23 14:45 271 2 gusting 6 2.2
2020-Jan-23 14:36 266 1 gusting 6 2.2
2020-Jan-23 14:27 272 2 gusting 6 2.2
2020-Jan-23 14:18 276 1 gusting 6 1.7
2020-Jan-23 14:15 280 1 gusting 6 1.7
2020-Jan-23 14:09 272 2 gusting 6 1.7
2020-Jan-23 14:00 278 1 gusting 6 1.1
2020-Jan-23 13:51 273 1 gusting 3 1.1
2020-Jan-23 13:45 274 0 gusting 2 0.6
2020-Jan-23 13:33 276 0 gusting 2 0.6
2020-Jan-23 13:24 274 0 gusting 3 -0.0
2020-Jan-23 13:15 280 1 gusting 4 -0.0
2020-Jan-23 13:06 277 1 gusting 2 -0.0
2020-Jan-23 12:57 274 1 gusting 5 -0.0
2020-Jan-23 12:48 274 1 gusting 2 -0.0
2020-Jan-23 12:39 276 1 gusting 2 -0.6
2020-Jan-23 12:30 273 1 gusting 5 -0.6
2020-Jan-23 12:21 273 2 gusting 6 -0.6
2020-Jan-23 12:15 275 2 gusting 6 -0.6
2020-Jan-23 12:03 274 1 gusting 5 -0.6
2020-Jan-23 12:00 304 1 gusting 5 -1.1
2020-Jan-23 11:54 273 1 gusting 5 -1.1
2020-Jan-23 11:45 274 1 gusting 5 -1.1
2020-Jan-23 11:36 275 1 gusting 5 -1.1
2020-Jan-23 11:30 279 1 gusting 5 -1.1
2020-Jan-23 11:18 270 1 gusting 5 -1.1
2020-Jan-23 11:09 270 1 gusting 5 -1.1
2020-Jan-23 11:00 272 2 gusting 5 -1.1
2020-Jan-23 10:51 261 0 gusting 3 -1.1
2020-Jan-23 10:42 259 0 gusting 2 -1.1
2020-Jan-23 10:33 260 0 gusting 2 -1.1
2020-Jan-23 10:24 259 -1.1
2020-Jan-23 10:15 263 1 gusting 5 -1.1
2020-Jan-23 10:06 265 0 gusting 2 -1.1